Time,TemperatureF,DewpointF,PressureIn,WindDirection,WindDirectionDegrees,WindSpeedMPH,WindSpeedGustMPH,Humidity,HourlyPrecipIn,Conditions,Clouds,dailyrainin,SolarRadiationWatts/m^2,SoftwareType,DateUTC
2013-03-09 00:01:00,46.8,44.0,30.02,East,90,0.7,2.2,90,0.00,,,0.00,0.00,pywws,2013-03-09 00:01:00,
2013-03-09 00:07:00,46.8,44.0,30.03,SE,135,0.7,2.2,90,0.00,,,0.00,0.00,pywws,2013-03-09 00:07:00,
2013-03-09 00:13:00,46.8,44.0,30.03,East,90,2.2,5.4,90,0.00,,,0.00,0.00,pywws,2013-03-09 00:13:00,
2013-03-09 00:18:00,46.8,44.0,30.03,East,90,1.6,3.1,90,0.00,,,0.00,0.00,pywws,2013-03-09 00:18:00,
2013-03-09 00:24:00,46.8,44.0,30.03,NE,45,0.7,1.6,90,0.00,,,0.00,0.00,pywws,2013-03-09 00:24:00,
2013-03-09 00:30:00,46.8,44.0,30.02,North,-999,0.0,0.7,90,0.00,,,0.00,0.00,pywws,2013-03-09 00:30:00,
2013-03-09 00:35:00,46.8,44.0,30.03,NE,45,4.5,8.3,90,0.00,,,0.00,0.00,pywws,2013-03-09 00:35:00,
2013-03-09 00:40:00,46.8,44.0,30.02,North,-999,0.0,1.6,90,0.00,,,0.00,0.00,pywws,2013-03-09 00:40:00,
2013-03-09 00:45:00,46.6,43.8,30.02,South,180,3.8,9.2,90,0.00,,,0.00,0.00,pywws,2013-03-09 00:45:00,
2013-03-09 00:51:00,46.8,44.0,30.02,East,90,2.2,6.0,90,0.00,,,0.00,0.00,pywws,2013-03-09 00:51:00,
2013-03-09 00:57:00,46.8,44.0,30.03,SW,225,0.7,3.8,90,0.00,,,0.00,0.00,pywws,2013-03-09 00:57:00,
2013-03-09 01:02:00,46.6,43.8,30.03,North,-999,0.0,1.6,90,0.00,,,0.00,0.00,pywws,2013-03-09 01:02:00,
2013-03-09 01:08:00,46.6,43.8,30.03,SE,135,1.6,2.2,90,0.00,,,0.00,0.00,pywws,2013-03-09 01:08:00,
2013-03-09 01:14:00,46.6,43.8,30.03,West,270,1.6,3.1,90,0.00,,,0.00,0.00,pywws,2013-03-09 01:14:00,
2013-03-09 01:19:00,46.6,43.8,30.03,West,270,0.7,1.6,90,0.00,,,0.00,0.00,pywws,2013-03-09 01:19:00,
2013-03-09 01:24:00,46.6,43.8,30.03,SE,135,1.6,2.2,90,0.00,,,0.00,0.00,pywws,2013-03-09 01:24:00,
2013-03-09 01:30:00,46.6,43.8,30.03,South,180,0.7,2.2,90,0.00,,,0.00,0.00,pywws,2013-03-09 01:30:00,
2013-03-09 01:35:00,46.6,43.8,30.03,North,-999,0.0,0.7,90,0.00,,,0.00,0.00,pywws,2013-03-09 01:35:00,
2013-03-09 01:41:00,46.6,43.8,30.03,SE,135,0.7,1.6,90,0.00,,,0.00,0.00,pywws,2013-03-09 01:41:00,
2013-03-09 01:46:00,46.4,43.3,30.03,WSW,248,1.6,2.2,89,0.00,,,0.00,0.00,pywws,2013-03-09 01:46:00,
2013-03-09 01:52:00,46.4,43.3,30.03,North,0,0.7,2.2,89,0.00,,,0.00,0.00,pywws,2013-03-09 01:52:00,
2013-03-09 01:57:00,46.2,43.5,30.03,NE,45,0.7,2.2,90,0.00,,,0.00,0.00,pywws,2013-03-09 01:57:00,
2013-03-09 02:03:00,46.0,43.3,30.03,East,90,0.7,1.6,90,0.00,,,0.00,0.00,pywws,2013-03-09 02:03:00,
2013-03-09 02:09:00,46.2,43.5,30.03,SE,135,4.5,6.9,90,0.00,,,0.00,0.00,pywws,2013-03-09 02:09:00,
2013-03-09 02:14:00,46.2,43.5,30.03,NE,45,0.7,1.6,90,0.00,,,0.00,0.00,pywws,2013-03-09 02:14:00,
2013-03-09 02:20:00,46.4,43.3,30.03,WSW,248,0.7,2.2,89,0.00,,,0.00,0.00,pywws,2013-03-09 02:20:00,
2013-03-09 02:25:00,46.4,43.3,30.02,North,0,1.6,3.8,89,0.00,,,0.00,0.00,pywws,2013-03-09 02:25:00,
2013-03-09 02:31:00,46.4,43.3,30.03,NE,45,0.7,2.2,89,0.00,,,0.00,0.00,pywws,2013-03-09 02:31:00,
2013-03-09 02:37:00,46.4,43.3,30.02,North,-999,0.0,2.2,89,0.00,,,0.00,0.00,pywws,2013-03-09 02:37:00,
2013-03-09 02:42:00,46.4,43.3,30.03,North,-999,0.0,0.7,89,0.00,,,0.00,0.00,pywws,2013-03-09 02:42:00,
2013-03-09 02:47:00,46.4,43.3,30.03,North,-999,0.0,1.6,89,0.00,,,0.00,0.00,pywws,2013-03-09 02:47:00,
2013-03-09 02:53:00,46.4,43.3,30.02,SE,135,2.2,3.1,89,0.00,,,0.00,0.00,pywws,2013-03-09 02:53:00,
2013-03-09 02:58:00,46.4,43.3,30.03,West,270,1.6,3.1,89,0.00,,,0.00,0.00,pywws,2013-03-09 02:58:00,
2013-03-09 03:04:00,46.4,43.3,30.03,SE,135,1.6,3.8,89,0.00,,,0.00,0.00,pywws,2013-03-09 03:04:00,
2013-03-09 03:09:00,46.2,43.5,30.02,North,-999,0.0,1.6,90,0.00,,,0.00,0.00,pywws,2013-03-09 03:09:00,
2013-03-09 03:14:00,46.2,43.5,30.02,North,0,1.6,3.8,90,0.00,,,0.00,0.00,pywws,2013-03-09 03:14:00,
2013-03-09 03:20:00,46.2,43.5,30.02,NW,315,0.7,2.2,90,0.00,,,0.00,0.00,pywws,2013-03-09 03:20:00,
2013-03-09 03:25:00,46.2,43.5,30.02,South,180,0.7,2.2,90,0.00,,,0.00,0.00,pywws,2013-03-09 03:25:00,
2013-03-09 03:30:00,46.2,43.5,30.02,West,270,0.7,1.6,90,0.00,,,0.00,0.00,pywws,2013-03-09 03:30:00,
2013-03-09 03:36:00,46.2,43.5,30.02,NW,315,0.7,1.6,90,0.00,,,0.00,0.00,pywws,2013-03-09 03:36:00,
2013-03-09 03:41:00,46.2,43.5,30.02,South,180,2.2,3.8,90,0.00,,,0.00,0.00,pywws,2013-03-09 03:41:00,
2013-03-09 03:47:00,46.2,43.5,30.02,NE,45,1.6,3.1,90,0.00,,,0.00,0.00,pywws,2013-03-09 03:47:00,
2013-03-09 03:53:00,46.2,43.5,30.02,North,0,2.2,3.1,90,0.00,,,0.00,0.00,pywws,2013-03-09 03:53:00,
2013-03-09 03:58:00,46.2,43.5,30.02,East,90,0.7,3.1,90,0.00,,,0.00,0.00,pywws,2013-03-09 03:58:00,
2013-03-09 04:04:00,46.0,43.3,30.02,SW,225,2.2,3.8,90,0.00,,,0.00,0.00,pywws,2013-03-09 04:04:00,
2013-03-09 04:09:00,46.0,43.3,30.02,WNW,292,1.6,3.1,90,0.00,,,0.00,0.00,pywws,2013-03-09 04:09:00,
2013-03-09 04:15:00,46.0,43.3,30.02,North,0,0.7,2.2,90,0.00,,,0.00,0.00,pywws,2013-03-09 04:15:00,
2013-03-09 04:20:00,46.0,43.3,30.02,North,-999,0.0,0.7,90,0.00,,,0.00,0.00,pywws,2013-03-09 04:20:00,
2013-03-09 04:26:00,46.0,43.3,30.02,East,90,1.6,3.1,90,0.00,,,0.00,0.00,pywws,2013-03-09 04:26:00,
2013-03-09 04:32:00,46.0,43.3,30.02,SW,225,3.1,4.5,90,0.00,,,0.00,0.00,pywws,2013-03-09 04:32:00,
2013-03-09 04:37:00,46.0,43.3,30.02,North,-999,0.0,1.6,90,0.00,,,0.00,0.00,pywws,2013-03-09 04:37:00,
2013-03-09 04:43:00,46.0,43.3,30.02,SW,225,1.6,3.1,90,0.00,,,0.00,0.00,pywws,2013-03-09 04:43:00,
2013-03-09 04:49:00,46.0,43.3,30.02,SW,225,0.7,2.2,90,0.00,,,0.00,0.00,pywws,2013-03-09 04:49:00,
2013-03-09 04:54:00,46.0,43.3,30.03,South,180,1.6,1.6,90,0.00,,,0.00,0.00,pywws,2013-03-09 04:54:00,
2013-03-09 05:00:00,45.9,43.1,30.03,SE,135,1.6,3.1,90,0.00,,,0.00,0.00,pywws,2013-03-09 05:00:00,
2013-03-09 05:01:00,45.9,43.1,30.03,SW,225,1.6,3.1,90,0.00,,,0.00,0.00,pywws,2013-03-09 05:01:00,
2013-03-09 05:02:00,45.9,43.1,30.03,North,-999,0.0,2.2,90,0.00,,,0.00,0.00,pywws,2013-03-09 05:02:00,
2013-03-09 05:05:00,45.9,42.8,30.03,South,180,1.6,3.1,89,0.00,,,0.00,0.00,pywws,2013-03-09 05:05:00,
2013-03-09 05:11:00,45.9,42.8,30.03,South,180,1.6,3.1,89,0.00,,,0.00,0.00,pywws,2013-03-09 05:11:00,
2013-03-09 05:17:00,45.7,42.6,30.03,West,270,2.2,3.8,89,0.00,,,0.00,0.00,pywws,2013-03-09 05:17:00,
2013-03-09 05:22:00,45.7,42.6,30.03,SE,135,0.7,2.2,89,0.00,,,0.00,0.00,pywws,2013-03-09 05:22:00,
2013-03-09 05:28:00,45.7,42.6,30.03,North,0,0.7,2.2,89,0.00,,,0.00,0.00,pywws,2013-03-09 05:28:00,
2013-03-09 05:34:00,45.7,42.6,30.03,SE,135,0.7,2.2,89,0.00,,,0.00,0.00,pywws,2013-03-09 05:34:00,
2013-03-09 05:39:00,45.7,42.6,30.03,SE,135,2.2,5.4,89,0.00,,,0.00,0.00,pywws,2013-03-09 05:39:00,
2013-03-09 05:44:00,45.7,42.6,30.03,NW,315,2.2,5.4,89,0.00,,,0.00,0.00,pywws,2013-03-09 05:44:00,
2013-03-09 05:49:00,45.7,42.6,30.03,North,-999,0.0,1.6,89,0.00,,,0.00,0.00,pywws,2013-03-09 05:49:00,
2013-03-09 05:55:00,45.7,42.6,30.04,East,90,0.7,2.2,89,0.00,,,0.00,0.00,pywws,2013-03-09 05:55:00,
2013-03-09 06:00:00,45.7,42.6,30.04,SE,135,1.6,3.8,89,0.00,,,0.00,0.00,pywws,2013-03-09 06:00:00,
2013-03-09 06:05:00,45.7,42.6,30.04,West,270,1.6,2.2,89,0.00,,,0.00,0.00,pywws,2013-03-09 06:05:00,
2013-03-09 06:11:00,45.7,42.6,30.04,North,-999,0.0,0.7,89,0.00,,,0.00,0.00,pywws,2013-03-09 06:11:00,
2013-03-09 06:17:00,45.7,42.6,30.04,SW,225,0.7,1.6,89,0.00,,,0.00,0.00,pywws,2013-03-09 06:17:00,
2013-03-09 06:22:00,45.7,42.6,30.04,North,-999,0.0,1.6,89,0.00,,,0.00,0.00,pywws,2013-03-09 06:22:00,
2013-03-09 06:28:00,45.7,42.6,30.04,SE,135,1.6,3.8,89,0.00,,,0.00,0.00,pywws,2013-03-09 06:28:00,
2013-03-09 06:34:00,45.7,42.6,30.04,SE,135,0.7,2.2,89,0.00,,,0.00,0.00,pywws,2013-03-09 06:34:00,
2013-03-09 06:39:00,45.7,42.6,30.05,WSW,248,1.6,3.1,89,0.00,,,0.00,0.00,pywws,2013-03-09 06:39:00,
2013-03-09 06:45:00,45.7,42.6,30.05,North,-999,0.0,0.7,89,0.00,,,0.00,0.00,pywws,2013-03-09 06:45:00,
2013-03-09 06:50:00,45.7,42.6,30.05,SSE,158,1.6,2.2,89,0.00,,,0.00,0.00,pywws,2013-03-09 06:50:00,
2013-03-09 06:56:00,45.7,42.6,30.05,SE,135,0.7,2.2,89,0.00,,,0.00,0.10,pywws,2013-03-09 06:56:00,
2013-03-09 07:01:00,45.7,42.6,30.05,South,180,1.6,2.2,89,0.00,,,0.00,0.35,pywws,2013-03-09 07:01:00,
2013-03-09 07:07:00,45.7,42.6,30.05,North,-999,0.0,0.0,89,0.00,,,0.00,0.84,pywws,2013-03-09 07:07:00,
2013-03-09 07:12:00,45.5,42.4,30.05,East,90,0.7,1.6,89,0.00,,,0.00,1.58,pywws,2013-03-09 07:12:00,
2013-03-09 07:17:00,45.5,42.4,30.06,North,-999,0.0,1.6,89,0.00,,,0.00,2.52,pywws,2013-03-09 07:17:00,
2013-03-09 07:23:00,45.7,42.6,30.06,North,-999,0.0,1.6,89,0.00,,,0.00,2.67,pywws,2013-03-09 07:23:00,
2013-03-09 07:28:00,45.7,42.6,30.06,North,-999,0.0,1.6,89,0.00,,,0.00,2.72,pywws,2013-03-09 07:28:00,
2013-03-09 07:34:00,45.7,42.6,30.06,SW,225,0.7,1.6,89,0.00,,,0.00,3.95,pywws,2013-03-09 07:34:00,
2013-03-09 07:39:00,45.7,42.6,30.06,North,-999,0.0,0.7,89,0.00,,,0.00,5.49,pywws,2013-03-09 07:39:00,
2013-03-09 07:44:00,45.7,42.6,30.06,East,90,0.7,1.6,89,0.00,,,0.00,5.76,pywws,2013-03-09 07:44:00,
2013-03-09 07:50:00,45.7,42.6,30.06,North,-999,0.0,0.7,89,0.00,,,0.00,6.03,pywws,2013-03-09 07:50:00,
2013-03-09 07:55:00,45.7,42.6,30.07,South,180,0.7,2.2,89,0.00,,,0.00,7.29,pywws,2013-03-09 07:55:00,
2013-03-09 08:00:00,45.7,42.6,30.07,North,-999,0.0,1.6,89,0.00,,,0.00,8.52,pywws,2013-03-09 08:00:00,
2013-03-09 08:06:00,45.9,42.8,30.08,SW,225,3.8,4.5,89,0.00,,,0.00,8.75,pywws,2013-03-09 08:06:00,
2013-03-09 08:11:00,45.9,43.1,30.08,South,180,0.7,2.2,90,0.00,,,0.00,11.53,pywws,2013-03-09 08:11:00,
2013-03-09 08:17:00,45.9,43.1,30.08,North,-999,0.0,0.0,90,0.00,,,0.00,13.20,pywws,2013-03-09 08:17:00,
2013-03-09 08:22:00,46.0,43.3,30.08,North,-999,0.0,0.7,90,0.00,,,0.00,13.57,pywws,2013-03-09 08:22:00,
2013-03-09 08:27:00,46.0,43.3,30.08,SE,135,1.6,3.1,90,0.00,,,0.00,14.22,pywws,2013-03-09 08:27:00,
2013-03-09 08:33:00,46.0,43.3,30.08,SE,135,0.7,2.2,90,0.00,,,0.00,14.09,pywws,2013-03-09 08:33:00,
2013-03-09 08:38:00,46.0,43.3,30.09,North,-999,0.0,0.7,90,0.00,,,0.00,12.20,pywws,2013-03-09 08:38:00,
2013-03-09 08:43:00,46.0,43.3,30.09,South,180,0.7,2.2,90,0.00,,,0.00,15.31,pywws,2013-03-09 08:43:00,
2013-03-09 08:49:00,46.0,43.3,30.09,North,-999,0.0,1.6,90,0.00,,,0.00,16.23,pywws,2013-03-09 08:49:00,
2013-03-09 08:54:00,46.0,43.3,30.09,North,-999,0.0,0.7,90,0.00,,,0.00,16.51,pywws,2013-03-09 08:54:00,
2013-03-09 09:00:00,46.2,43.5,30.09,North,-999,0.0,0.7,90,0.00,,,0.00,18.84,pywws,2013-03-09 09:00:00,
2013-03-09 09:05:00,46.2,43.5,30.09,North,-999,0.0,0.7,90,0.00,,,0.00,20.32,pywws,2013-03-09 09:05:00,
2013-03-09 09:10:00,46.2,43.5,30.10,North,-999,0.0,0.7,90,0.00,,,0.00,24.53,pywws,2013-03-09 09:10:00,
2013-03-09 09:16:00,46.2,43.5,30.10,SE,135,0.7,2.2,90,0.00,,,0.00,28.04,pywws,2013-03-09 09:16:00,
2013-03-09 09:21:00,46.4,43.3,30.10,SE,135,0.7,1.6,89,0.00,,,0.00,28.71,pywws,2013-03-09 09:21:00,
2013-03-09 09:26:00,46.4,43.3,30.10,East,90,0.7,1.6,89,0.00,,,0.00,33.32,pywws,2013-03-09 09:26:00,
2013-03-09 09:32:00,46.4,43.3,30.10,North,-999,0.0,0.7,89,0.00,,,0.00,33.16,pywws,2013-03-09 09:32:00,
2013-03-09 09:37:00,46.6,43.5,30.10,North,-999,0.0,0.7,89,0.00,,,0.00,35.46,pywws,2013-03-09 09:37:00,
2013-03-09 09:43:00,46.8,43.7,30.11,East,90,0.7,1.6,89,0.00,,,0.00,35.46,pywws,2013-03-09 09:43:00,
2013-03-09 09:48:00,46.9,43.9,30.11,NE,45,1.6,2.2,89,0.00,,,0.00,45.77,pywws,2013-03-09 09:48:00,
2013-03-09 09:54:00,46.9,43.9,30.11,North,-999,0.0,0.7,89,0.00,,,0.00,45.77,pywws,2013-03-09 09:54:00,
2013-03-09 09:59:00,47.1,44.0,30.11,North,-999,0.0,0.7,89,0.00,,,0.00,43.83,pywws,2013-03-09 09:59:00,
2013-03-09 10:05:00,47.3,44.2,30.11,West,270,0.7,1.6,89,0.00,,,0.00,43.83,pywws,2013-03-09 10:05:00,
2013-03-09 10:10:00,47.3,44.2,30.11,North,-999,0.0,0.7,89,0.00,,,0.00,32.40,pywws,2013-03-09 10:10:00,
2013-03-09 10:16:00,47.1,44.0,30.11,North,-999,0.0,1.6,89,0.00,,,0.00,32.40,pywws,2013-03-09 10:16:00,
2013-03-09 10:21:00,47.1,44.0,30.11,South,180,0.7,1.6,89,0.00,,,0.00,29.98,pywws,2013-03-09 10:21:00,
2013-03-09 10:27:00,46.9,43.9,30.11,North,-999,0.0,0.7,89,0.00,,,0.00,29.98,pywws,2013-03-09 10:27:00,
2013-03-09 10:32:00,46.9,43.9,30.11,East,90,0.7,1.6,89,0.00,,,0.00,34.64,pywws,2013-03-09 10:32:00,
2013-03-09 10:38:00,46.9,43.9,30.11,North,-999,0.0,0.7,89,0.00,,,0.00,42.16,pywws,2013-03-09 10:38:00,
2013-03-09 10:43:00,46.9,43.9,30.11,East,90,0.7,1.6,89,0.00,,,0.00,44.22,pywws,2013-03-09 10:43:00,
2013-03-09 10:49:00,46.8,43.7,30.12,East,90,3.1,3.8,89,0.00,,,0.00,40.79,pywws,2013-03-09 10:49:00,
2013-03-09 10:54:00,46.6,43.5,30.12,East,90,3.1,4.5,89,0.00,,,0.00,40.79,pywws,2013-03-09 10:54:00,
2013-03-09 11:00:00,46.2,43.5,30.12,East,90,0.7,2.2,90,0.00,,,0.00,40.71,pywws,2013-03-09 11:00:00,
2013-03-09 11:05:00,46.2,43.2,30.11,East,90,3.1,4.5,89,0.00,,,0.00,40.71,pywws,2013-03-09 11:05:00,
2013-03-09 11:10:00,46.0,43.0,30.11,East,90,0.7,2.2,89,0.00,,,0.00,58.20,pywws,2013-03-09 11:10:00,
2013-03-09 11:16:00,46.2,43.2,30.12,East,90,1.6,3.8,89,0.00,,,0.00,60.76,pywws,2013-03-09 11:16:00,
2013-03-09 11:21:00,46.2,43.2,30.12,East,90,2.2,3.8,89,0.00,,,0.00,60.52,pywws,2013-03-09 11:21:00,
2013-03-09 11:27:00,46.2,43.2,30.12,East,90,1.6,3.1,89,0.00,,,0.00,60.52,pywws,2013-03-09 11:27:00,
2013-03-09 11:32:00,46.2,43.2,30.12,East,90,2.2,3.1,89,0.00,,,0.00,58.61,pywws,2013-03-09 11:32:00,
2013-03-09 11:38:00,46.0,43.0,30.13,SE,135,0.7,2.2,89,0.00,,,0.00,49.19,pywws,2013-03-09 11:38:00,
2013-03-09 11:43:00,45.9,42.8,30.12,North,0,1.6,2.2,89,0.00,,,0.00,50.70,pywws,2013-03-09 11:43:00,
2013-03-09 11:48:00,45.9,42.8,30.12,East,90,1.6,3.1,89,0.00,,,0.00,50.70,pywws,2013-03-09 11:48:00,
2013-03-09 11:54:00,45.9,42.8,30.13,East,90,1.6,3.1,89,0.00,,,0.00,57.92,pywws,2013-03-09 11:54:00,
2013-03-09 11:59:00,45.7,42.6,30.13,East,90,3.8,5.4,89,0.00,,,0.00,57.92,pywws,2013-03-09 11:59:00,
2013-03-09 12:04:00,45.7,42.6,30.13,East,90,3.1,4.5,89,0.00,,,0.00,43.83,pywws,2013-03-09 12:04:00,
2013-03-09 12:09:00,45.7,42.6,30.13,East,90,3.8,5.4,89,0.00,,,0.00,47.32,pywws,2013-03-09 12:09:00,
2013-03-09 12:15:00,45.5,42.4,30.13,East,90,2.2,4.5,89,0.00,,,0.00,60.52,pywws,2013-03-09 12:15:00,
2013-03-09 12:20:00,45.5,42.4,30.13,SE,135,3.1,5.4,89,0.00,,,0.00,67.53,pywws,2013-03-09 12:20:00,
2013-03-09 12:25:00,45.5,42.2,30.13,East,90,5.4,6.9,88,0.00,,,0.00,60.10,pywws,2013-03-09 12:25:00,
2013-03-09 12:31:00,45.3,42.0,30.13,ENE,68,2.2,4.5,88,0.00,,,0.00,63.52,pywws,2013-03-09 12:31:00,
2013-03-09 12:36:00,45.7,42.6,30.14,South,180,2.2,6.0,89,0.00,,,0.00,58.20,pywws,2013-03-09 12:36:00,
2013-03-09 12:41:00,45.7,42.6,30.13,East,90,2.2,3.1,89,0.00,,,0.00,58.20,pywws,2013-03-09 12:41:00,
2013-03-09 12:47:00,45.5,42.2,30.13,North,0,4.5,8.3,88,0.00,,,0.00,52.56,pywws,2013-03-09 12:47:00,
2013-03-09 12:52:00,45.3,42.0,30.13,East,90,2.2,3.8,88,0.00,,,0.00,52.56,pywws,2013-03-09 12:52:00,
2013-03-09 12:57:00,45.1,41.8,30.13,East,90,2.2,3.1,88,0.00,,,0.00,55.57,pywws,2013-03-09 12:57:00,
2013-03-09 13:03:00,45.3,42.0,30.13,East,90,3.1,4.5,88,0.00,,,0.00,53.76,pywws,2013-03-09 13:03:00,
2013-03-09 13:09:00,45.1,41.8,30.14,SE,135,2.2,3.8,88,0.00,,,0.00,54.51,pywws,2013-03-09 13:09:00,
2013-03-09 13:14:00,45.1,41.8,30.14,East,90,0.7,2.2,88,0.00,,,0.00,53.29,pywws,2013-03-09 13:14:00,
2013-03-09 13:20:00,45.1,41.8,30.13,East,90,3.1,6.0,88,0.00,,,0.00,42.33,pywws,2013-03-09 13:20:00,
2013-03-09 13:25:00,45.0,41.6,30.14,East,90,2.2,3.8,88,0.00,,,0.00,34.81,pywws,2013-03-09 13:25:00,
2013-03-09 13:30:00,45.0,41.6,30.14,ENE,68,1.6,3.8,88,0.00,,,0.00,36.03,pywws,2013-03-09 13:30:00,
2013-03-09 13:36:00,45.0,41.6,30.14,East,90,3.1,4.5,88,0.00,,,0.00,38.18,pywws,2013-03-09 13:36:00,
2013-03-09 13:41:00,44.8,41.4,30.14,East,90,3.1,4.5,88,0.00,,,0.00,49.63,pywws,2013-03-09 13:41:00,
2013-03-09 13:46:00,44.8,41.4,30.14,SE,135,3.1,6.9,88,0.00,,,0.00,44.65,pywws,2013-03-09 13:46:00,
2013-03-09 13:52:00,44.6,41.3,30.14,East,90,0.7,2.2,88,0.00,,,0.00,45.05,pywws,2013-03-09 13:52:00,
2013-03-09 13:57:00,44.6,41.3,30.14,East,90,2.2,3.8,88,0.00,,,0.00,43.83,pywws,2013-03-09 13:57:00,
2013-03-09 14:03:00,44.6,41.3,30.14,NE,45,3.1,5.4,88,0.00,,,0.00,38.52,pywws,2013-03-09 14:03:00,
2013-03-09 14:08:00,44.6,41.3,30.14,East,90,4.5,6.9,88,0.00,,,0.00,28.82,pywws,2013-03-09 14:08:00,
2013-03-09 14:14:00,44.4,41.4,30.14,East,90,3.8,6.0,89,0.00,,,0.00,23.33,pywws,2013-03-09 14:14:00,
2013-03-09 14:19:00,44.2,41.2,30.14,NE,45,1.6,3.1,89,0.00,,,0.00,20.40,pywws,2013-03-09 14:19:00,
2013-03-09 14:24:00,44.2,41.2,30.14,NE,45,0.7,2.2,89,0.00,,,0.00,20.69,pywws,2013-03-09 14:24:00,
2013-03-09 14:30:00,44.2,41.2,30.15,NE,45,2.2,4.5,89,0.00,,,0.00,22.69,pywws,2013-03-09 14:30:00,
2013-03-09 14:35:00,44.1,41.0,30.14,East,90,5.4,6.9,89,0.00,,,0.00,23.81,pywws,2013-03-09 14:35:00,
2013-03-09 14:40:00,43.9,40.9,30.14,East,90,4.5,9.2,89,0.00,,,0.00,25.34,pywws,2013-03-09 14:40:00,
2013-03-09 14:46:00,43.9,40.9,30.14,SE,135,2.2,3.8,89,0.00,,,0.00,23.39,pywws,2013-03-09 14:46:00,
2013-03-09 14:51:00,43.9,40.9,30.15,East,90,3.8,6.0,89,0.00,,,0.00,23.93,pywws,2013-03-09 14:51:00,
2013-03-09 14:57:00,43.9,40.9,30.14,NE,45,2.2,3.1,89,0.00,,,0.00,18.78,pywws,2013-03-09 14:57:00,
2013-03-09 15:02:00,43.9,40.9,30.14,NE,45,3.1,5.4,89,0.00,,,0.00,19.80,pywws,2013-03-09 15:02:00,
2013-03-09 15:09:00,43.7,40.7,30.14,NE,45,3.8,5.4,89,0.00,,,0.00,24.43,pywws,2013-03-09 15:09:00,
2013-03-09 15:14:00,43.7,40.7,30.14,NE,45,3.8,5.4,89,0.00,,,0.00,21.97,pywws,2013-03-09 15:14:00,
2013-03-09 15:20:00,43.7,40.7,30.14,East,90,3.8,5.4,89,0.00,,,0.00,22.12,pywws,2013-03-09 15:20:00,
2013-03-09 15:25:00,43.5,40.5,30.14,East,90,4.5,6.0,89,0.00,,,0.00,22.12,pywws,2013-03-09 15:25:00,
2013-03-09 15:31:00,43.5,40.5,30.14,East,90,3.8,6.9,89,0.00,,,0.00,22.58,pywws,2013-03-09 15:31:00,
2013-03-09 15:37:00,43.3,40.3,30.14,ESE,112,2.2,3.8,89,0.00,,,0.00,18.78,pywws,2013-03-09 15:37:00,
2013-03-09 15:42:00,43.3,40.3,30.14,East,90,3.1,4.5,89,0.00,,,0.00,18.61,pywws,2013-03-09 15:42:00,
2013-03-09 15:48:00,43.3,40.3,30.15,East,90,0.7,1.6,89,0.00,,,0.00,12.20,pywws,2013-03-09 15:48:00,
2013-03-09 15:53:00,43.3,40.3,30.15,South,180,1.6,4.5,89,0.00,,,0.00,10.80,pywws,2013-03-09 15:53:00,
2013-03-09 15:58:00,43.3,40.3,30.15,NE,45,2.2,4.5,89,0.00,,,0.00,10.80,pywws,2013-03-09 15:58:00,
2013-03-09 16:04:00,43.2,40.1,30.15,SSW,202,7.6,10.7,89,0.00,,,0.00,10.80,pywws,2013-03-09 16:04:00,
2013-03-09 16:09:00,43.2,40.1,30.15,ENE,68,3.8,6.9,89,0.00,,,0.00,13.89,pywws,2013-03-09 16:09:00,
2013-03-09 16:15:00,43.0,40.0,30.15,East,90,4.5,9.2,89,0.00,,,0.00,13.39,pywws,2013-03-09 16:15:00,
2013-03-09 16:20:00,43.0,40.0,30.15,SE,135,2.2,5.4,89,0.00,,,0.00,13.39,pywws,2013-03-09 16:20:00,
2013-03-09 16:26:00,43.0,40.0,30.15,SE,135,2.2,3.8,89,0.00,,,0.00,9.99,pywws,2013-03-09 16:26:00,
2013-03-09 16:31:00,43.0,40.0,30.15,SE,135,2.2,3.8,89,0.00,,,0.00,9.99,pywws,2013-03-09 16:31:00,
2013-03-09 16:37:00,43.0,40.0,30.15,WNW,292,3.8,6.0,89,0.00,,,0.00,7.94,pywws,2013-03-09 16:37:00,
2013-03-09 16:42:00,43.0,40.0,30.15,East,90,3.8,7.6,89,0.00,,,0.00,7.69,pywws,2013-03-09 16:42:00,
2013-03-09 16:48:00,42.8,39.8,30.15,East,90,4.5,8.3,89,0.00,,,0.00,7.69,pywws,2013-03-09 16:48:00,
2013-03-09 16:54:00,42.8,39.8,30.16,East,90,4.5,8.3,89,0.00,,,0.00,4.16,pywws,2013-03-09 16:54:00,
2013-03-09 16:59:00,42.8,39.8,30.16,North,0,3.8,6.9,89,0.00,,,0.00,4.16,pywws,2013-03-09 16:59:00,
2013-03-09 17:05:00,42.8,39.8,30.16,East,90,4.5,7.6,89,0.00,,,0.00,4.16,pywws,2013-03-09 17:05:00,
2013-03-09 17:10:00,42.6,39.9,30.16,East,90,6.0,12.1,90,0.00,,,0.00,4.25,pywws,2013-03-09 17:10:00,
2013-03-09 17:16:00,42.4,39.7,30.16,NE,45,3.1,3.8,90,0.00,,,0.00,3.21,pywws,2013-03-09 17:16:00,
2013-03-09 17:21:00,42.4,39.7,30.16,SE,135,1.6,3.1,90,0.00,,,0.00,3.21,pywws,2013-03-09 17:21:00,
2013-03-09 17:26:00,42.4,39.7,30.16,East,90,4.5,7.6,90,0.00,,,0.00,3.31,pywws,2013-03-09 17:26:00,
2013-03-09 17:32:00,42.4,39.7,30.16,East,90,4.5,6.9,90,0.00,,,0.00,3.31,pywws,2013-03-09 17:32:00,
2013-03-09 17:37:00,42.3,39.5,30.16,NE,45,4.5,9.8,90,0.00,,,0.00,2.42,pywws,2013-03-09 17:37:00,
2013-03-09 17:43:00,42.3,39.5,30.17,East,90,3.1,9.2,90,0.00,,,0.00,2.42,pywws,2013-03-09 17:43:00,
2013-03-09 17:49:00,42.1,39.4,30.17,NE,45,5.4,7.6,90,0.00,,,0.00,1.83,pywws,2013-03-09 17:49:00,
2013-03-09 17:54:00,42.1,39.4,30.17,NE,45,4.5,7.6,90,0.00,,,0.00,1.83,pywws,2013-03-09 17:54:00,
2013-03-09 18:00:00,41.9,38.9,30.17,East,90,3.8,6.0,89,0.00,,,0.00,1.09,pywws,2013-03-09 18:00:00,
2013-03-09 18:05:00,41.9,38.9,30.17,SE,135,3.1,4.5,89,0.00,,,0.00,1.09,pywws,2013-03-09 18:05:00,
2013-03-09 18:10:00,41.9,39.2,30.17,NW,315,3.1,7.6,90,0.00,,,0.00,0.10,pywws,2013-03-09 18:10:00,
2013-03-09 18:16:00,41.9,38.9,30.17,East,90,6.0,8.3,89,0.00,,,0.00,0.10,pywws,2013-03-09 18:16:00,
2013-03-09 18:21:00,41.9,38.9,30.18,East,90,6.9,11.4,89,0.00,,,0.00,0.10,pywws,2013-03-09 18:21:00,
2013-03-09 18:27:00,41.9,39.2,30.18,NE,45,3.8,6.0,90,0.00,,,0.00,0.00,pywws,2013-03-09 18:27:00,
2013-03-09 18:32:00,41.9,39.2,30.18,East,90,4.5,7.6,90,0.00,,,0.00,0.00,pywws,2013-03-09 18:32:00,
2013-03-09 18:38:00,41.9,38.9,30.19,East,90,1.6,2.2,89,0.00,,,0.00,0.00,pywws,2013-03-09 18:38:00,
2013-03-09 18:43:00,41.9,38.9,30.18,East,90,3.1,5.4,89,0.00,,,0.00,0.00,pywws,2013-03-09 18:43:00,
2013-03-09 18:49:00,41.9,38.9,30.18,East,90,5.4,8.3,89,0.00,,,0.00,0.00,pywws,2013-03-09 18:49:00,
2013-03-09 18:54:00,41.9,38.9,30.19,East,90,2.2,4.5,89,0.00,,,0.00,0.00,pywws,2013-03-09 18:54:00,
2013-03-09 19:00:00,41.9,38.9,30.19,ESE,112,3.8,6.0,89,0.00,,,0.00,0.00,pywws,2013-03-09 19:00:00,
2013-03-09 19:06:00,41.7,38.7,30.19,NE,45,1.6,3.8,89,0.00,,,0.00,0.00,pywws,2013-03-09 19:06:00,
2013-03-09 19:11:00,41.7,38.7,30.19,NE,45,4.5,9.2,89,0.00,,,0.00,0.00,pywws,2013-03-09 19:11:00,
2013-03-09 19:17:00,41.7,38.7,30.19,East,90,1.6,5.4,89,0.00,,,0.00,0.00,pywws,2013-03-09 19:17:00,
2013-03-09 19:22:00,41.7,38.7,30.19,NE,45,4.5,6.9,89,0.00,,,0.00,0.00,pywws,2013-03-09 19:22:00,
2013-03-09 19:28:00,41.7,38.7,30.19,NE,45,0.7,2.2,89,0.00,,,0.00,0.00,pywws,2013-03-09 19:28:00,
2013-03-09 19:34:00,41.7,38.7,30.20,NW,315,0.7,1.6,89,0.00,,,0.00,0.00,pywws,2013-03-09 19:34:00,
2013-03-09 19:39:00,41.7,38.7,30.19,NW,315,0.7,2.2,89,0.00,,,0.00,0.00,pywws,2013-03-09 19:39:00,
2013-03-09 19:44:00,41.7,38.7,30.20,East,90,2.2,6.0,89,0.00,,,0.00,0.00,pywws,2013-03-09 19:44:00,
2013-03-09 19:50:00,41.7,38.7,30.20,NW,315,2.2,4.5,89,0.00,,,0.00,0.00,pywws,2013-03-09 19:50:00,
2013-03-09 19:55:00,41.7,38.7,30.20,North,-999,0.0,0.7,89,0.00,,,0.00,0.00,pywws,2013-03-09 19:55:00,
2013-03-09 20:00:00,41.9,38.9,30.20,North,0,1.6,3.1,89,0.00,,,0.00,0.00,pywws,2013-03-09 20:00:00,
2013-03-09 20:06:00,41.7,38.7,30.20,NW,315,1.6,3.8,89,0.00,,,0.00,0.00,pywws,2013-03-09 20:06:00,
2013-03-09 20:12:00,41.7,38.7,30.20,North,0,1.6,4.5,89,0.00,,,0.00,0.00,pywws,2013-03-09 20:12:00,
2013-03-09 20:17:00,41.7,38.7,30.20,East,90,3.8,5.4,89,0.00,,,0.00,0.00,pywws,2013-03-09 20:17:00,
2013-03-09 20:23:00,41.7,38.7,30.21,North,0,1.6,3.1,89,0.00,,,0.00,0.00,pywws,2013-03-09 20:23:00,
2013-03-09 20:29:00,41.7,38.7,30.20,NE,45,4.5,5.4,89,0.00,,,0.00,0.00,pywws,2013-03-09 20:29:00,
2013-03-09 20:34:00,41.7,38.7,30.20,NE,45,3.1,4.5,89,0.00,,,0.00,0.00,pywws,2013-03-09 20:34:00,
2013-03-09 20:40:00,41.7,38.7,30.20,East,90,1.6,3.1,89,0.00,,,0.00,0.00,pywws,2013-03-09 20:40:00,
2013-03-09 20:45:00,41.7,38.7,30.20,East,90,3.8,6.9,89,0.00,,,0.00,0.00,pywws,2013-03-09 20:45:00,
2013-03-09 20:50:00,41.5,38.3,30.21,East,90,3.8,6.0,88,0.00,,,0.00,0.00,pywws,2013-03-09 20:50:00,
2013-03-09 20:56:00,41.7,38.4,30.20,East,90,6.0,8.3,88,0.00,,,0.00,0.00,pywws,2013-03-09 20:56:00,
2013-03-09 21:01:00,41.5,38.3,30.21,SE,135,3.1,5.4,88,0.00,,,0.00,0.00,pywws,2013-03-09 21:01:00,
2013-03-09 21:06:00,41.5,38.3,30.21,ENE,68,4.5,9.2,88,0.00,,,0.00,0.00,pywws,2013-03-09 21:06:00,
2013-03-09 21:12:00,41.5,38.3,30.21,SW,225,3.1,5.4,88,0.00,,,0.00,0.00,pywws,2013-03-09 21:12:00,
2013-03-09 21:18:00,41.5,38.3,30.21,NNE,22,2.2,3.8,88,0.00,,,0.00,0.00,pywws,2013-03-09 21:18:00,
2013-03-09 21:24:00,41.5,38.3,30.21,SE,135,3.8,7.6,88,0.00,,,0.00,0.00,pywws,2013-03-09 21:24:00,
2013-03-09 21:30:00,41.5,38.3,30.21,NNE,22,5.4,7.6,88,0.00,,,0.00,0.00,pywws,2013-03-09 21:30:00,
2013-03-09 21:35:00,41.5,38.3,30.21,South,180,2.2,3.8,88,0.00,,,0.00,0.00,pywws,2013-03-09 21:35:00,
2013-03-09 21:41:00,41.4,38.1,30.21,NE,45,2.2,5.4,88,0.00,,,0.00,0.00,pywws,2013-03-09 21:41:00,
2013-03-09 21:46:00,41.4,38.1,30.21,East,90,3.1,6.0,88,0.00,,,0.00,0.00,pywws,2013-03-09 21:46:00,
2013-03-09 21:52:00,41.4,38.1,30.21,North,-999,0.0,1.6,88,0.00,,,0.00,0.00,pywws,2013-03-09 21:52:00,
2013-03-09 21:58:00,41.4,37.8,30.21,ENE,68,4.5,6.9,87,0.00,,,0.00,0.00,pywws,2013-03-09 21:58:00,
2013-03-09 22:03:00,41.4,37.8,30.21,NE,45,4.5,6.9,87,0.00,,,0.00,0.00,pywws,2013-03-09 22:03:00,
2013-03-09 22:09:00,41.4,37.8,30.21,ESE,112,4.5,8.3,87,0.00,,,0.00,0.00,pywws,2013-03-09 22:09:00,
2013-03-09 22:14:00,41.2,37.6,30.21,East,90,3.1,6.9,87,0.00,,,0.00,0.00,pywws,2013-03-09 22:14:00,
2013-03-09 22:20:00,41.4,37.8,30.21,East,90,2.2,5.4,87,0.00,,,0.00,0.00,pywws,2013-03-09 22:20:00,
2013-03-09 22:25:00,41.4,37.8,30.21,East,90,3.8,6.0,87,0.00,,,0.00,0.00,pywws,2013-03-09 22:25:00,
2013-03-09 22:31:00,41.4,37.8,30.21,NNE,22,3.1,4.5,87,0.00,,,0.00,0.00,pywws,2013-03-09 22:31:00,
2013-03-09 22:36:00,41.4,37.8,30.21,NE,45,3.8,7.6,87,0.00,,,0.00,0.00,pywws,2013-03-09 22:36:00,
2013-03-09 22:42:00,41.2,37.6,30.21,East,90,8.3,11.4,87,0.00,,,0.00,0.00,pywws,2013-03-09 22:42:00,
2013-03-09 22:47:00,41.0,37.4,30.21,SE,135,3.1,6.0,87,0.00,,,0.00,0.00,pywws,2013-03-09 22:47:00,
2013-03-09 22:53:00,41.0,37.4,30.21,SSW,202,2.2,3.1,87,0.00,,,0.00,0.00,pywws,2013-03-09 22:53:00,
2013-03-09 22:58:00,41.0,37.4,30.21,SE,135,4.5,6.9,87,0.00,,,0.00,0.00,pywws,2013-03-09 22:58:00,
2013-03-09 23:03:00,41.0,37.4,30.21,East,90,5.4,11.4,87,0.00,,,0.00,0.00,pywws,2013-03-09 23:03:00,
2013-03-09 23:09:00,40.8,37.5,30.20,East,90,4.5,9.2,88,0.00,,,0.00,0.00,pywws,2013-03-09 23:09:00,
2013-03-09 23:14:00,41.0,37.4,30.20,ENE,68,4.5,9.2,87,0.00,,,0.00,0.00,pywws,2013-03-09 23:14:00,
2013-03-09 23:20:00,40.8,37.5,30.20,East,90,4.5,7.6,88,0.00,,,0.00,0.00,pywws,2013-03-09 23:20:00,
2013-03-09 23:25:00,40.8,37.5,30.20,NE,45,3.1,5.4,88,0.00,,,0.00,0.00,pywws,2013-03-09 23:25:00,
2013-03-09 23:31:00,40.8,37.5,30.21,East,90,5.4,9.8,88,0.00,,,0.00,0.00,pywws,2013-03-09 23:31:00,
2013-03-09 23:37:00,40.8,37.5,30.21,NE,45,4.5,6.9,88,0.00,,,0.00,0.00,pywws,2013-03-09 23:37:00,
2013-03-09 23:42:00,40.6,37.4,30.21,SE,135,4.5,8.3,88,0.00,,,0.00,0.00,pywws,2013-03-09 23:42:00,
2013-03-09 23:47:00,40.8,37.5,30.21,East,90,5.4,8.3,88,0.00,,,0.00,0.00,pywws,2013-03-09 23:47:00,
2013-03-09 23:53:00,40.8,37.5,30.21,North,0,4.5,6.9,88,0.00,,,0.00,0.00,pywws,2013-03-09 23:53:00,
2013-03-09 23:58:00,40.8,37.5,30.21,NNE,22,4.5,8.3,88,0.00,,,0.00,0.00,pywws,2013-03-09 23:58:00,